Weather History for Riverton, WY

Change the Weather History Date:

Wednesday, July 11, 2012

  Actual Average Record
Temperature  
Mean Temperature 76 °F 71 °F  
Max Temperature 91 °F 87 °F 96 °F (2013)
Min Temperature 60 °F 56 °F 52 °F (2000)
Degree Days  
Heating Degree Days 0 0  
Month to date heating degree days 0 8  
Since 1 June heating degree days 34 127  
Since 1 July heating degree days 0 8  
Cooling Degree Days 11 7  
Month to date cooling degree days 121 63  
Year to date cooling degree days 286 138  
Since 1 June cooling degree days 276 129  
Growing Degree Days 26 (Base 50)    
Moisture  
Dew Point 40 °F    
Average Humidity 30    
Maximum Humidity 44    
Minimum Humidity 15    
Precipitation  
Precipitation T in 0.03 in 0.22 in (2014)
Month to date precipitation T 0.39  
Year to date precipitation 2.06 5.75  
Snow  
Snow 0.00 in - - ()
Month to date snowfall 0.0  
Since 1 June snowfall 0.0  
Since 1 July snowfall 0.0  
Snow Depth 0.00 in    
Sea Level Pressure  
Sea Level Pressure 29.98 in    
Wind  
Wind Speed 8 mph (NNW)    
Max Wind Speed 32 mph    
Max Gust Speed 61 mph    
Visibility 10 miles    
Events      
T = Trace of Precipitation, MM = Missing Value Source: NWS Daily Summary

Daily Weather History Graph

Daily Weather History Graph

Search for Another Location

Airport:

Trip Planner

Search our weather history database for the weather conditions in past years. The results will help you decide how hot, cold, wet, or windy it might be!

Date:

Astronomy

Jul. 11, 2012 Rise Set
Actual Time 5:45 AM MDT 8:53 PM MDT
Civil Twilight 5:10 AM MDT 9:27 PM MDT
Nautical Twilight 4:26 AM MDT 10:11 PM MDT
Astronomical Twilight 3:33 AM MDT 11:04 PM MDT
Moon 12:25 AM MDT (7/11) 2:27 PM MDT (7/11)
Length of Visible Light 16h 16m
Length of Day
15h 07m
Last Quarter, 44% of the Moon is Illuminated
Jul 11
Last Quarter
Jul 18
New
Jul 26
First Quarter
Aug 1
Full
Aug 9
Last Quarter

Hourly Weather History & Observations

Time (MDT) Temp. Dew Point Humidity Pressure Visibility Wind Dir Wind Speed Gust Speed Precip Events Conditions
12:53 AM 71.1 °F 39.9 °F 32% 29.97 in 10.0 mi Calm Calm - N/A   Clear
1:53 AM 70.0 °F 39.9 °F 33% 29.97 in 10.0 mi ENE 3.5 mph - N/A   Clear
2:53 AM 64.0 °F 39.0 °F 40% 29.98 in 10.0 mi Calm Calm - N/A   Clear
3:53 AM 63.0 °F 39.9 °F 43% 30.00 in 10.0 mi WNW 10.4 mph - N/A   Clear
4:53 AM 63.0 °F 39.0 °F 41% 29.97 in 10.0 mi West 6.9 mph - N/A   Clear
5:53 AM 62.1 °F 39.9 °F 44% 29.98 in 10.0 mi WNW 9.2 mph - N/A   Clear
6:53 AM 66.2 °F 39.2 °F 37% 30.20 in 10.0 mi NW 6.9 mph - N/A   Clear
7:53 AM 68.0 °F 41.0 °F 37% 29.99 in 10.0 mi Calm Calm - N/A   Clear
8:53 AM 71.1 °F 43.0 °F 36% 29.99 in 10.0 mi WSW 5.8 mph - N/A   Clear
9:53 AM 75.9 °F 42.1 °F 30% 29.97 in 10.0 mi WSW 3.5 mph - N/A   Clear
10:53 AM 81.0 °F 41.0 °F 24% 29.96 in 10.0 mi Variable 4.6 mph - N/A   Clear
11:53 AM 84.0 °F 39.9 °F 21% 29.94 in 10.0 mi ESE 4.6 mph - N/A   Clear
12:53 PM 87.1 °F 41.0 °F 20% 29.90 in 10.0 mi East 8.1 mph - N/A   Clear
1:53 PM 89.1 °F 37.0 °F 16% 29.87 in 10.0 mi NE 8.1 mph - N/A   Clear
2:53 PM 89.1 °F 36.0 °F 15% 29.91 in 10.0 mi NNW 9.2 mph - N/A   Clear
3:12 PM 80.6 °F 39.2 °F 23% 30.14 in 4.0 mi NW 43.7 mph 61.0 mph N/A   Haze
3:53 PM 75.0 °F 43.0 °F 32% 30.02 in 10.0 mi NW 29.9 mph 42.6 mph N/A   Clear
4:53 PM 75.9 °F 42.1 °F 30% 30.03 in 10.0 mi West 32.2 mph 38.0 mph 0.00 in   Scattered Clouds
5:53 PM 79.0 °F 39.9 °F 25% 30.00 in 10.0 mi South 11.5 mph - 0.00 in   Clear
6:53 PM 78.1 °F 43.0 °F 29% 29.97 in 10.0 mi ESE 8.1 mph - N/A   Clear
7:53 PM 77.0 °F 42.1 °F 29% 29.95 in 10.0 mi ENE 5.8 mph - N/A   Clear
8:53 PM 73.9 °F 39.9 °F 29% 29.94 in 10.0 mi East 5.8 mph - N/A   Clear
9:53 PM 70.0 °F 39.9 °F 33% 29.96 in 10.0 mi ENE 6.9 mph - N/A   Clear
10:53 PM 71.1 °F 41.0 °F 34% 29.95 in 10.0 mi Calm Calm - N/A   Clear
11:53 PM 64.9 °F 43.0 °F 45% 29.97 in 10.0 mi North 9.2 mph - N/A   Clear